Stations météo

réclame
Mon MeteoGroup
Schaffen, Belgique (6465): Température de l'air & dewpoint: 15.10.2018 16:00:00 - 21.10.2018 16:00:00 (CEST)Schaffen, Belgique (6465): Vitesse du vent & gusts: 15.10.2018 16:00:00 - 21.10.2018 16:00:00 (CEST)Schaffen, Belgique (6465): Direction du vent: 15.10.2018 16:00:00 - 21.10.2018 16:00:00 (CEST)Schaffen, Belgique (6465): reduced air pressure: 15.10.2018 16:00:00 - 21.10.2018 16:00:00 (CEST)Schaffen, Belgique (6465): visibility: 15.10.2018 16:00:00 - 21.10.2018 16:00:00 (CEST)
Date & Time tt [°C] td [°C] ff [km/h] ff [knt] fx [km/h] fx [knt] dd ppp [hPa] vv [km]
21.10.2018 16:00:00 16,8 6,0 4 2 11 6 N 1027,5 19
21.10.2018 15:00:00 16,3 5,8 4 2 11 6 N 1028,0 19
21.10.2018 14:00:00 15,0 5,9 4 2 - - N 1028,5 18
21.10.2018 13:00:00 14,0 6,2 4 2 11 6 N 1029,2 12
21.10.2018 12:00:00 12,1 7,0 4 2 7 4 N 1029,7 9
21.10.2018 11:00:00 10,0 6,5 4 2 - - N 1029,9 5
21.10.2018 10:00:00 6,0 4,9 4 2 7 4 N 1030,0 3,0
21.10.2018 09:00:00 3,4 3,2 7 4 7 4 SSE 1029,7 1,0
21.10.2018 08:00:00 3,0 2,8 7 4 - - S 1029,7 1,3
21.10.2018 07:00:00 3,0 2,8 5 3 7 4 SSE 1030,0 1,5
21.10.2018 06:00:00 3,4 3,0 4 2 7 4 N 1030,2 3,2
21.10.2018 05:00:00 3,5 3,2 4 2 - - N 1030,2 2,9
21.10.2018 04:00:00 4,3 3,9 4 2 4 2 N 1030,7 4,4
21.10.2018 03:00:00 5,1 4,7 4 2 4 2 - 1031,0 3,5
21.10.2018 02:00:00 5,3 4,5 5 3 - - S 1031,0 6
21.10.2018 01:00:00 6,0 5,1 4 2 4 2 - 1031,4 7
21.10.2018 00:00:00 8,0 5,8 4 2 7 4 N 1031,4 15
20.10.2018 23:00:00 8,1 6,0 7 4 - - NE 1031,7 15
20.10.2018 22:00:00 7,4 5,6 4 2 4 2 N 1031,5 14
20.10.2018 21:00:00 9,3 5,6 4 2 4 2 N 1031,5 19
20.10.2018 20:00:00 11,5 5,8 4 2 - - N 1031,5 20
20.10.2018 19:00:00 12,1 5,8 4 2 7 4 N 1031,2 20
20.10.2018 18:00:00 14,1 5,5 4 2 11 6 N 1030,7 20
20.10.2018 17:00:00 14,8 5,3 7 4 - - NNE 1031,0 20
20.10.2018 16:00:00 15,1 6,2 4 2 7 4 N 1031,2 16
20.10.2018 15:00:00 15,3 6,7 4 2 11 6 N 1031,5 16
20.10.2018 14:00:00 13,7 6,7 2 1 - - - 1032,2 10
20.10.2018 13:00:00 13,4 6,8 4 2 11 6 N 1032,2 15
20.10.2018 12:00:00 12,1 7,5 4 2 7 4 N 1032,5 8
20.10.2018 11:00:00 8,8 7,0 2 1 - - - 1032,4 6
20.10.2018 10:00:00 7,1 6,7 4 2 4 2 N 1031,9 2,5
20.10.2018 09:00:00 5,3 4,8 4 2 4 2 N 1031,2 0,8
20.10.2018 08:00:00 6,1 5,8 4 2 - - N 1030,7 1,9
20.10.2018 07:00:00 6,2 5,9 5 3 7 4 NNW 1030,2 1,3
20.10.2018 06:00:00 6,3 5,9 4 2 7 4 N 1029,2 2,8
20.10.2018 05:00:00 6,7 6,1 4 2 - - N 1029,0 2,8
20.10.2018 04:00:00 7,0 6,4 9 5 14 8 NNW 1028,9 4,4
20.10.2018 03:00:00 6,8 6,2 7 4 11 6 NNW 1028,2 3,6
20.10.2018 02:00:00 7,9 6,8 7 4 - - NNW 1028,0 6
20.10.2018 01:00:00 8,5 7,0 7 4 14 8 NNW 1027,9 9
20.10.2018 00:00:00 9,5 7,6 11 6 14 8 NNW 1027,5 10
19.10.2018 23:00:00 10,3 8,2 11 6 - - NNW 1027,2 9
19.10.2018 22:00:00 11,5 8,2 7 4 11 6 NNW 1026,7 12
19.10.2018 21:00:00 13,5 8,8 4 2 11 6 N 1026,2 15
19.10.2018 20:00:00 13,7 8,3 7 4 - - N 1025,7 19
19.10.2018 19:00:00 14,3 9,0 7 4 14 8 N 1025,0 17
19.10.2018 18:00:00 15,1 8,9 11 6 14 8 N 1024,5 19
19.10.2018 17:00:00 15,5 9,8 11 6 - - N 1024,2 17
19.10.2018 16:00:00 15,6 9,9 7 4 14 8 NNE 1024,0 12
19.10.2018 15:00:00 15,5 10,3 9 5 22 12 N 1024,4 10
19.10.2018 14:00:00 15,0 10,0 7 4 - - N 1024,9 9
19.10.2018 13:00:00 14,1 9,8 5 3 11 6 ENE 1025,0 8
19.10.2018 12:00:00 12,3 9,7 4 2 14 8 N 1025,4 5
19.10.2018 11:00:00 11,0 9,2 7 4 - - N 1025,5 4,6
19.10.2018 10:00:00 10,8 8,9 11 6 14 8 NNE 1025,2 6
19.10.2018 09:00:00 10,6 8,7 7 4 11 6 NNE 1024,9 6
19.10.2018 08:00:00 10,6 8,6 7 4 - - N 1024,7 10
19.10.2018 07:00:00 10,8 8,5 7 4 11 6 NNE 1024,7 11
19.10.2018 06:00:00 11,1 8,7 7 4 11 6 NNE 1024,7 16
19.10.2018 05:00:00 11,8 8,8 7 4 - - NE 1024,5 17
19.10.2018 04:00:00 11,3 9,4 4 2 7 4 N 1024,5 20
19.10.2018 03:00:00 11,8 9,0 4 2 14 8 N 1024,5 19
19.10.2018 02:00:00 12,6 9,9 7 4 - - NE 1024,5 19
19.10.2018 01:00:00 13,1 9,6 7 4 22 12 NE 1024,9 19
19.10.2018 00:00:00 13,1 8,8 11 6 22 12 NE 1024,9 20
18.10.2018 23:00:00 11,7 8,9 14 8 - - NNE 1025,0 17
18.10.2018 22:00:00 11,0 9,3 7 4 14 8 NNE 1025,0 18
18.10.2018 21:00:00 11,5 9,4 11 6 18 10 NNE 1024,7 20
18.10.2018 20:00:00 13,6 9,9 11 6 - - NE 1024,4 20
18.10.2018 19:00:00 14,3 10,3 11 6 22 12 NE 1024,2 20
18.10.2018 18:00:00 14,6 10,8 11 6 22 12 NNE 1024,0 20
18.10.2018 17:00:00 15,1 11,1 18 10 - - NNE 1024,0 20
18.10.2018 16:00:00 15,7 11,0 14 8 29 16 NNE 1024,2 18
18.10.2018 15:00:00 15,5 11,4 15 8 25 14 NE 1024,2 10
18.10.2018 14:00:00 15,6 11,4 14 8 - - NNE 1024,4 18
18.10.2018 13:00:00 14,8 11,7 14 8 25 14 NNE 1024,7 18
18.10.2018 12:00:00 14,2 12,0 11 6 22 12 N 1024,9 10
18.10.2018 11:00:00 12,7 11,9 14 8 - - NNE 1024,5 6
18.10.2018 10:00:00 11,6 11,5 11 6 14 8 N 1024,4 5
18.10.2018 09:00:00 10,1 10,1 9 5 11 6 NNW 1024,0 3,0
18.10.2018 08:00:00 10,6 10,4 7 4 - - NNW 1023,6 4,5
18.10.2018 07:00:00 11,3 10,8 7 4 14 8 N 1023,2 8
18.10.2018 06:00:00 12,1 11,4 11 6 14 8 N 1022,8 8
18.10.2018 05:00:00 13,0 11,6 11 6 - - N 1022,6 6
18.10.2018 04:00:00 13,0 11,4 7 4 14 8 N 1022,6 7
18.10.2018 03:00:00 13,1 11,5 11 6 14 8 N 1022,5 9
18.10.2018 02:00:00 13,1 11,6 11 6 - - NNW 1022,3 9
18.10.2018 01:00:00 13,1 11,6 11 6 14 8 NNW 1022,2 8
18.10.2018 00:00:00 13,1 11,8 7 4 11 6 N 1022,2 7
17.10.2018 23:00:00 12,8 11,5 11 6 - - N 1021,7 7
17.10.2018 22:00:00 13,4 12,0 11 6 11 6 NNW 1021,6 7
17.10.2018 21:00:00 14,1 12,3 7 4 14 8 NNW 1020,8 7
17.10.2018 20:00:00 15,1 12,6 11 6 - - NNW 1020,3 9
17.10.2018 19:00:00 16,4 12,6 7 4 14 8 NNW 1019,7 13
17.10.2018 18:00:00 17,8 13,0 7 4 14 8 N 1019,2 15
17.10.2018 17:00:00 19,3 13,1 7 4 - - NW 1019,2 16
17.10.2018 16:00:00 19,8 12,9 4 2 11 6 N 1019,1 16
17.10.2018 15:00:00 19,8 13,1 4 2 11 6 N 1019,2 12
17.10.2018 14:00:00 18,7 12,7 4 2 - - N 1019,5 12
17.10.2018 13:00:00 17,6 13,1 4 2 11 6 N 1019,8 12
17.10.2018 12:00:00 16,5 13,6 4 2 7 4 N 1020,1 8
17.10.2018 11:00:00 14,9 12,8 4 2 - - N 1020,0 6
17.10.2018 10:00:00 13,3 11,0 4 2 11 6 N 1019,7 6
17.10.2018 09:00:00 9,2 8,9 4 2 7 4 N 1019,7 6
17.10.2018 08:00:00 10,3 9,7 7 4 - - N 1019,2 6
17.10.2018 07:00:00 10,1 9,4 7 4 7 4 S 1018,8 8
17.10.2018 06:00:00 10,3 9,5 4 2 7 4 N 1018,8 8
17.10.2018 05:00:00 11,1 9,7 4 2 - - N 1018,7 8
17.10.2018 04:00:00 13,0 10,0 7 4 14 8 WSW 1018,6 11
17.10.2018 03:00:00 11,8 9,9 7 4 7 4 N 1018,5 11
17.10.2018 02:00:00 12,3 10,4 4 2 - - N 1018,6 10
17.10.2018 01:00:00 12,8 10,4 7 4 11 6 S 1018,5 13
17.10.2018 00:00:00 14,1 11,0 4 2 11 6 N 1018,6 13
16.10.2018 23:00:00 14,6 11,3 7 4 - - SSE 1018,7 14
16.10.2018 22:00:00 15,8 11,4 7 4 11 6 SSE 1018,7 18
16.10.2018 21:00:00 18,1 10,8 7 4 7 4 SE 1018,6 20
16.10.2018 20:00:00 20,1 10,1 4 2 - - N 1018,3 20
16.10.2018 19:00:00 22,0 9,9 5 3 7 4 SE 1018,1 2,8
16.10.2018 18:00:00 23,3 9,8 4 2 7 4 N 1017,7 19
16.10.2018 17:00:00 25,0 8,8 4 2 - - N 1017,7 20
16.10.2018 16:00:00 25,1 8,1 7 4 14 8 SE 1017,8 20
16.10.2018 15:00:00 24,8 8,7 7 4 14 8 SE 1017,8 20
16.10.2018 14:00:00 23,7 10,3 4 2 - - N 1018,2 15
16.10.2018 13:00:00 21,7 10,0 7 4 11 6 SE 1018,6 15
16.10.2018 12:00:00 19,5 10,6 7 4 11 6 SSE 1018,7 15
16.10.2018 11:00:00 16,8 10,9 7 4 - - N 1018,7 15
16.10.2018 10:00:00 13,2 10,3 4 2 7 4 N 1018,7 12
16.10.2018 09:00:00 10,8 8,9 4 2 11 6 N 1018,5 12
16.10.2018 08:00:00 9,6 8,8 7 4 - - S 1018,0 8
16.10.2018 07:00:00 9,8 8,7 4 2 7 4 N 1017,7 8
16.10.2018 06:00:00 9,8 8,7 4 2 22 12 N 1017,7 8
16.10.2018 05:00:00 10,3 9,3 4 2 - - N 1017,1 7
16.10.2018 04:00:00 10,8 9,7 4 2 7 4 N 1017,1 6
16.10.2018 03:00:00 11,1 10,0 4 2 7 4 N 1016,8 8
16.10.2018 02:00:00 12,0 10,4 4 2 - - N 1016,5 11
16.10.2018 01:00:00 13,0 10,5 7 4 11 6 S 1016,1 11
16.10.2018 00:00:00 13,2 10,7 7 4 11 6 SSE 1015,7 13
15.10.2018 23:00:00 14,7 10,7 4 2 - - N 1015,6 20
15.10.2018 22:00:00 17,5 9,7 4 2 7 4 N 1015,1 20
15.10.2018 21:00:00 16,8 10,8 4 2 7 4 N 1014,7 20
15.10.2018 20:00:00 19,3 10,3 4 2 - - N 1014,3 20
15.10.2018 19:00:00 20,1 10,8 5 3 7 4 SSE 1013,8 1,6
15.10.2018 18:00:00 22,6 10,2 7 4 14 8 N 1013,2 20
15.10.2018 17:00:00 23,6 10,0 7 4 - - S 1012,7 20
15.10.2018 16:00:00 23,9 10,4 11 6 22 12 S 1012,3 20

tt = Température de l'air
td = dewpoint
ff = Vitesse du vent
fx = gusts
dd = Direction du vent
ppp = reduced air pressure
vv = visibility

stations d'obs. à proximité